Regional Weather Roundup
Issued by NWS

Home | Current Version | Previous Version | Text Only | Print | Product List | Glossary Off
Versions: 1 2 3 4 5 6 7 8 9 10 11 12 13 14 15 16 17 18 19 20 21 22 23 24 25 26 27 28 29 30 31 32 33 34 35 36 37 38 39 40 41 42 43 44 45 46 47 48 49 50

000
ASUS43 KMPX 250401
RWRMN
WEATHER ROUNDUP FOR MINNESOTA
NATIONAL WEATHER SERVICE TWIN CITIES/CHANHASSEN MN
1100 PM CDT FRI APR 24 2015


NOTE: "FAIR" INDICATES FEW OR NO CLOUDS BELOW 12,000 FEET WITH NO
SIGNIFICANT WEATHER AND/OR OBSTRUCTIONS TO VISIBILITY. N/A MEANS
CURRENT SKY AND/OR WEATHER CONDITIONS ARE NOT AVAILABLE.

MNZ060>063-068>070-250500-
   Twin Cities Metro

CITY           SKY/WX    TMP DP  RH WIND       PRES   REMARKS
TWIN CITIES    CLOUDY    44  41  89 E14       29.83R
ST PAUL        CLOUDY    45  40  82 SE13      29.85R
CRYSTAL        CLOUDY    47  40  76 SE10      29.81S
BLAINE         CLOUDY    48  39  71 E14       29.83R
LAKEVILLE      CLOUDY    43  41  93 E12       29.81S
EDEN PRAIRIE   CLOUDY    44  41  89 E14G22    29.80R
SOUTH ST PAUL  CLOUDY    45  41  88 SE9       29.83S
LAKE ELMO      CLOUDY    45  39  81 E10       29.85R
$$
MNZ001>005-007-008-013>017-022>024-027-028-250500-
   Northwest Minnesota

CITY           SKY/WX    TMP DP  RH WIND       PRES   REMARKS
BEMIDJI        CLOUDY    40  30  66 E9        29.84S
HALLOCK        CLOUDY    45  32  61 E10       29.84R
ROSEAU         CLOUDY    41  34  75 E10       29.87S
WARROAD        CLOUDY    37  32  81 E7        29.89S
THIEF RVR FALL CLOUDY    45  32  61 E10       29.83S
CROOKSTON      CLOUDY    45  34  65 E9        29.82S
FOSSTON        CLOUDY    41  30  65 E9        29.82S
DETROIT LAKES  MOCLDY    43  32  65 E12G17    29.79R
MOORHEAD       CLOUDY    45  37  76 E9        29.79R
PARK RAPIDS    CLOUDY    42  30  62 E13       29.81R
MAHNOMEN       CLOUDY    43  33  68 E8        29.80R
$$
MNZ006-009>011-018-025>026-250500-
   North Central Minnesota

CITY           SKY/WX    TMP DP  RH WIND       PRES   REMARKS
BAUDETTE       CLOUDY    40  26  57 E10       29.89S
FLAG ISLAND    CLOUDY    41  27  56 E7        29.91S
INTL FALLS     CLOUDY    39  21  48 E7        29.92S
WASKISH        CLOUDY    41  30  65 CALM      29.87S
BIG FORK       CLOUDY    39  27  60 SE6       29.89S
LONGVILLE      CLOUDY    39  30  70 SE6       29.85S
GRAND RAPIDS   CLOUDY    37  25  60 E8        29.88S
CRANE LAKE     CLOUDY    37  16  41 CALM      29.96S
ORR            CLOUDY    37  16  41 SE7       29.90S
COOK           CLOUDY    37  18  44 E3        29.93S
WALKER         CLOUDY    40  30  66 E6        29.83F
$$
MNZ012-019>021-037-250500-
   Northeast Minnesota

CITY           SKY/WX    TMP DP  RH WIND       PRES   REMARKS
DULUTH         CLOUDY    35  24  64 E14       29.91S WCI  26
ELY            CLOUDY    36  16  44 E8        29.95S
HIBBING        CLOUDY    37  17  44 E8        29.91S
EVELETH        CLOUDY    36  18  48 E7        29.93S
DULUTH HARBOR  CLOUDY    36  32  87 NE17      29.96S
TWO HARBORS    CLOUDY    39  27  60 NE12      29.93F
SILVER BAY     CLOUDY    36  23  60 NE7       29.95F
GRAND MARAIS     N/A     36  24  62 NE8       30.04R
G MARAIS ARPRT CLOUDY    30  12  47 E5        29.99S WCI  25
$$
MNZ029>031-032-039>041-046>048-054>057-064-250500-
   West Central Minnesota

CITY           SKY/WX    TMP DP  RH WIND       PRES   REMARKS
FERGUS FALLS   CLOUDY    45  37  76 SE10G21   29.78R
WHEATON        CLOUDY    41  39  93 E15       29.76R FOG
MORRIS         CLOUDY    45  43  93 E16       29.74R FOG
ALEXANDRIA     LGT RAIN  42  40  92 E13       29.78R FOG
ELBOW LAKE     CLOUDY    43  41  93 E16G22    29.75S
WADENA         CLOUDY    41  32  70 E9        29.79R
GLENWOOD       CLOUDY    43  41  93 E18       29.77S FOG
APPLETON       CLOUDY    46  41  81 E17       29.73R THUNDER
BENSON         CLOUDY    45  39  81 SE13G18   29.75R
ORTONVILLE     CLOUDY    45  39  81 E18       29.72R
MADISON        CLOUDY    46  41  81 E18       29.70F
WILLMAR        CLOUDY    45  41  87 E14G22    29.77R THUNDER
$$
MNZ033>034-036-042>043-049>051-058-059-250500-
   Central Minnesota

CITY           SKY/WX    TMP DP  RH WIND       PRES   REMARKS
ST CLOUD       CLOUDY    44  38  79 E9        29.81R
SAUK CENTRE    CLOUDY    42  40  93 E14       29.78F FOG
PAYNESVILLE    CLOUDY    40  38  93 NE15      29.77F
AITKIN         CLOUDY    39  32  75 E8        29.84F
PINE RIVER     CLOUDY    39  32  75 E12       29.87S
BRAINERD       CLOUDY    40  32  73 E7        29.84S
STAPLES        CLOUDY    41  30  65 E7        29.81S
LONG PRAIRIE   CLOUDY    41  37  87 E12       29.79S
LITTLE FALLS   MOCLDY    45  36  70 E10G17    29.82R
LITCHFIELD     CLOUDY    45  43  93 E16       29.76F
BUFFALO        CLOUDY    44  39  84 E14G20    29.81F
MAPLE LAKE     CLOUDY    45  42  88 E12       29.81S
$$
MNZ037-044-045-052-053-250500-
   East Central Minnesota

CITY           SKY/WX    TMP DP  RH WIND       PRES   REMARKS
PRINCETON      CLOUDY    46  39  76 E9        29.83S
MORA           CLOUDY    41  30  65 E6        29.87S
CAMBRIDGE      CLOUDY    48  36  61 E8        29.82S
RUSH CITY      CLOUDY    47  33  58 E3        29.85S
MOOSE LAKE     CLOUDY    36  30  80 CALM      29.87F
HINCKLEY       CLOUDY    43  32  65 E8        29.86S
CLOQUET        CLOUDY    34  27  75 E13G18    29.90S WCI  25
MCGREGOR       CLOUDY    36  32  87 E10       29.88S
$$
MNZ071>073-080-081-089-090-097-098-250500-
   Southwest Minnesota

CITY           SKY/WX    TMP DP  RH WIND       PRES   REMARKS
MONTEVIDEO     CLOUDY    45  41  87 SE12      29.75R THUNDER
GRANITE FALLS  CLOUDY    45  40  84 E10G16    29.74R THUNDER
CANBY          TSTM      45  43  93 SE12      29.70F
MARSHALL       CLOUDY    45  39  81 E16       29.69R
REDWOOD FALLS  CLOUDY    45  41  86 E12G18    29.72R
OLIVIA         CLOUDY    41  36  81 E15       29.73R
PIPESTONE      CLOUDY    48  46  93 SE15G21   29.61R
WINDOM         CLOUDY    46  43  87 E15       29.68S
WORTHINGTON    CLOUDY    45  41  87 SE15      29.66R
JACKSON        MOCLDY    45  41  87 E14       29.68R
TRACY          CLOUDY    47  44  87 E13G21    29.69R THUNDER
SLAYTON        CLOUDY    46  45  96 E12G18    29.66S THUNDER
$$
MNZ065>067-074>077-082>085-091>093-250500-
   South Central Minnesota

CITY           SKY/WX    TMP DP  RH WIND       PRES   REMARKS
MANKATO        CLOUDY    45  37  76 E16G23    29.75F
NEW ULM        CLOUDY    45  41  87 E15G23    29.73F
ST JAMES       CLOUDY    46  41  81 E14       29.73S
FAIRMONT       CLOUDY    45  19  36 SE17      29.69S
GLENCOE        CLOUDY    45  41  88 E12       29.77F
FARIBAULT      CLOUDY    45  39  81 E13G21    29.79S
OWATONNA       CLOUDY    43  39  87 E17G23    29.77F
WASECA         CLOUDY    43  37  81 E15       29.77S
ALBERT LEA     CLOUDY    45  41  87 E12       29.76S
$$
MNZ078>079-086>088-094>096-250500-
   Southeast Minnesota

CITY           SKY/WX    TMP DP  RH WIND       PRES   REMARKS
ROCHESTER      CLOUDY    42  39  89 SE15      29.81F
RED WING       CLOUDY    45  41  87 E10G17    29.84R
STANTON        DRIZZLE   45  41  87 E16       29.80R
DODGE CENTER   CLOUDY    43  41  93 SE20      29.77F
AUSTIN         CLOUDY    43  39  87 E15G21    29.77F
PRESTON        CLOUDY    41  38  86 E14G20    29.82R
$$
ABBREVIATIONS USED IN REMARKS
   TC - TEMPERATURES IN CELSIUS
  WCI - WIND CHILL INDEX
   HX - HEAT INDEX
  VSB - VISIBILITY
$$


USA.gov is the U.S. government's official web portal to all federal, state and local government web resources and services.